TimeEDT,TemperatureF,Dew PointF,Humidity,Sea Level PressureIn,VisibilityMPH,Wind Direction,Wind SpeedMPH,Gust SpeedMPH,PrecipitationIn,Events,Conditions,WindDirDegrees,DateUTC
12:58 AM,66.9,65.7,96,29.88,10.0,SW,3.5,-,N/A,,Clear,230,2013-06-17 04:58:00
1:58 AM,66.0,65.5,98,29.89,10.0,SSW,2.3,-,N/A,,Clear,210,2013-06-17 05:58:00
2:58 AM,66.4,65.5,97,29.88,10.0,WSW,2.3,-,N/A,,Clear,240,2013-06-17 06:58:00
3:58 AM,63.9,63.7,99,29.89,10.0,South,4.6,-,N/A,,Clear,190,2013-06-17 07:58:00
4:58 AM,64.9,64.6,99,29.90,10.0,SW,1.2,-,N/A,,Clear,220,2013-06-17 08:58:00
5:12 AM,64.4,64.4,100,29.89,9.0,Calm,Calm,-,N/A,,Clear,0,2013-06-17 09:12:00
5:17 AM,64.4,64.4,100,29.89,8.0,SW,1.2,-,N/A,,Clear,230,2013-06-17 09:17:00
5:58 AM,64.4,64.2,99,29.91,10.0,SW,4.6,-,N/A,,Clear,220,2013-06-17 09:58:00
6:38 AM,66.2,66.2,100,29.91,10.0,SW,4.6,-,N/A,Rain,Light Rain,230,2013-06-17 10:38:00
6:47 AM,68.0,66.2,94,29.90,10.0,WSW,4.6,-,N/A,,Clear,240,2013-06-17 10:47:00
6:58 AM,67.3,66.4,97,29.92,10.0,WSW,3.5,-,0.00,,Clear,240,2013-06-17 10:58:00
7:58 AM,70.2,67.1,90,29.93,10.0,WSW,5.8,-,N/A,,Clear,240,2013-06-17 11:58:00
8:23 AM,71.6,68.0,88,29.92,10.0,West,5.8,-,N/A,Rain,Light Rain,260,2013-06-17 12:23:00
8:26 AM,71.6,66.2,83,29.92,10.0,West,6.9,-,N/A,,Clear,260,2013-06-17 12:26:00
8:58 AM,73.2,66.7,80,29.93,10.0,WSW,4.6,-,0.00,,Partly Cloudy,250,2013-06-17 12:58:00
9:58 AM,78.1,67.5,70,29.92,10.0,WSW,8.1,-,N/A,,Clear,240,2013-06-17 13:58:00
10:58 AM,81.0,66.7,62,29.90,10.0,SW,9.2,-,N/A,,Partly Cloudy,230,2013-06-17 14:58:00
11:58 AM,82.2,66.7,59,29.89,10.0,WSW,10.4,-,N/A,,Partly Cloudy,250,2013-06-17 15:58:00
12:58 PM,84.4,66.4,55,29.90,10.0,SW,11.5,21.9,N/A,,Partly Cloudy,230,2013-06-17 16:58:00
1:21 PM,84.2,64.4,51,29.88,10.0,SW,15.0,-,N/A,,Clear,230,2013-06-17 17:21:00
1:58 PM,85.1,65.3,51,29.87,10.0,SW,11.5,19.6,N/A,,Partly Cloudy,220,2013-06-17 17:58:00
2:17 PM,86.0,66.2,51,29.86,10.0,West,13.8,-,N/A,,Scattered Clouds,260,2013-06-17 18:17:00
2:58 PM,85.3,66.0,52,29.87,10.0,SW,9.2,-,N/A,,Mostly Cloudy,230,2013-06-17 18:58:00
3:15 PM,84.2,66.2,55,29.85,10.0,SW,12.7,19.6,N/A,,Mostly Cloudy,220,2013-06-17 19:15:00
3:58 PM,85.6,66.2,52,29.85,10.0,WSW,15.0,20.7,N/A,,Clear,250,2013-06-17 19:58:00
4:58 PM,84.4,67.1,56,29.84,10.0,West,13.8,-,N/A,,Clear,260,2013-06-17 20:58:00
5:58 PM,83.5,67.1,58,29.85,10.0,SW,12.7,-,N/A,,Clear,220,2013-06-17 21:58:00
6:58 PM,81.5,66.6,60,29.86,10.0,NNW,9.2,-,N/A,,Mostly Cloudy,340,2013-06-17 22:58:00
7:58 PM,79.0,66.6,66,29.88,10.0,SW,8.1,-,N/A,,Clear,220,2013-06-17 23:58:00
8:58 PM,74.5,64.9,72,29.88,10.0,WSW,6.9,-,N/A,,Clear,240,2013-06-18 00:58:00
9:58 PM,70.3,62.1,75,29.91,10.0,SW,8.1,-,N/A,,Clear,220,2013-06-18 01:58:00
10:58 PM,68.5,61.9,79,29.92,10.0,WSW,4.6,-,N/A,,Clear,240,2013-06-18 02:58:00
11:58 PM,68.4,62.4,81,29.91,10.0,WSW,4.6,-,N/A,,Clear,240,2013-06-18 03:58:00